FW2458 Weather Reports


Display with metric or nautical units.
time (UTC)temp
F
wind
direction
speed
MPH
gust
MPH
rain 1hr
in
rain 24hr
in
rain mn
in
humidity
%
barometer
mb
20260906075444 62 39 0.0 2.0 0.00 0.00 0.00 90 1012.7
20260906074941 62 39 0.0 2.0 0.00 0.00 0.00 90 1012.7
20260906074439 63 39 0.0 3.0 0.00 0.00 0.00 90 1012.7
20260906073940 63 39 0.0 3.0 0.00 0.00 0.00 90 1012.8
20260906073439 63 42 0.0 1.0 0.00 0.00 0.00 90 1012.8
20260906072938 62 44 0.0 1.0 0.00 0.00 0.00 90 1012.8
20260906072658 62 42 0.0 1.0 0.00 0.00 0.00 90 1012.7
20260906072541 62 42 0.0 1.0 0.00 0.00 0.00 90 1012.8
20260906071921 62 42 0.0 2.0 0.00 0.00 0.00 90 1012.7
20260906070927 62 42 0.0 2.0 0.00 0.00 0.00 90 1012.6
20260906070422 62 42 0.0 0.0 0.00 0.00 0.00 89 1012.6
20260906065920 62 42 0.0 0.0 0.00 0.00 0.00 89 1012.6
20260906065419 62 42 0.0 0.0 0.00 0.00 0.00 89 1012.8
20260906064916 63 42 0.0 0.0 0.00 0.00 0.00 88 1012.8
20260906064413 63 42 0.0 0.0 0.00 0.00 0.00 88 1012.7
20260906064134 63 42 0.0 0.0 0.00 0.00 0.00 88 1012.8
20260906063409 63 42 0.0 1.0 0.00 0.00 0.00 88 1012.8
20260906063135 63 42 0.0 1.0 0.00 0.00 0.00 88 1012.7
20260906062408 63 42 0.0 1.0 0.00 0.00 0.00 87 1012.8
20260906062128 63 42 0.0 0.0 0.00 0.00 0.00 87 1012.8
20260906061405 64 42 0.0 0.0 0.00 0.00 0.00 86 1012.8
20260906060905 64 42 0.0 0.0 0.00 0.00 0.00 86 1012.9
20260906060405 64 42 0.0 1.0 0.00 0.00 0.00 86 1013.0
20260906060122 64 42 0.0 1.0 0.00 0.00 0.00 85 1013.0
20260906055400 65 42 0.0 1.0 0.00 0.00 0.00 85 1013.0
20260906054916 65 42 0.0 3.0 0.00 0.00 0.00 85 1013.1
20260906054355 65 42 0.0 3.0 0.00 0.00 0.00 85 1013.0
20260906053848 65 42 0.0 4.0 0.00 0.00 0.00 85 1013.0
20260906053349 65 42 0.0 4.0 0.00 0.00 0.00 85 1013.0
20260906052851 64 148 0.0 2.0 0.00 0.00 0.00 86 1012.9
20260906052351 64 148 0.0 2.0 0.00 0.00 0.00 86 1013.0
20260906051849 64 146 0.0 2.0 0.00 0.00 0.00 87 1013.1
20260906051350 64 145 0.0 2.0 0.00 0.00 0.00 87 1013.1
20260906051109 64 67 0.0 1.0 0.00 0.00 0.00 87 1013.1
20260906050348 64 67 0.0 1.0 0.00 0.00 0.00 87 1013.1
20260906045850 64 67 0.0 0.0 0.00 0.00 0.00 87 1013.2
20260906045350 64 67 0.0 0.0 0.00 0.00 0.00 87 1013.1
20260906045105 64 67 0.0 0.0 0.00 0.00 0.00 87 1013.2
20260906044348 64 67 0.0 0.0 0.00 0.00 0.00 86 1013.1
20260906043848 65 67 0.0 0.0 0.00 0.00 0.00 86 1013.1
20260906043349 65 67 0.0 0.0 0.00 0.00 0.00 86 1013.0
20260906042851 65 67 0.0 0.0 0.00 0.00 0.00 86 1012.9
20260906042350 65 67 0.0 0.0 0.00 0.00 0.00 86 1012.9
20260906042333 65 67 0.0 0.0 0.00 0.00 0.00 86 1012.8
20260906041613 65 67 0.0 0.0 0.00 0.00 0.00 86 1012.9
20260906040846 65 67 0.0 0.0 0.00 0.00 0.00 86 1013.0
20260906040346 65 67 0.0 0.0 0.00 0.00 0.00 87 1012.8
20260906040116 65 67 0.0 0.0 0.00 0.00 0.00 87 1012.8
20260906035345 65 67 0.0 0.0 0.00 0.00 0.00 87 1012.9
20260906034844 65 67 0.0 0.0 0.00 0.00 0.00 87 1013.1
20260906034346 65 67 0.0 1.0 0.00 0.00 0.00 87 1012.9
20260906033846 65 67 0.0 1.0 0.00 0.00 0.00 87 1012.9
20260906033344 65 67 0.0 0.0 0.00 0.00 0.00 86 1012.9
20260906032842 65 67 0.0 0.0 0.00 0.00 0.00 86 1012.9
20260906032343 65 67 0.0 0.0 0.00 0.00 0.00 87 1012.9
20260906031845 65 67 0.0 0.0 0.00 0.00 0.00 86 1012.8
20260906031339 65 67 0.0 0.0 0.00 0.00 0.00 86 1012.6
20260906030843 65 67 0.0 0.0 0.00 0.00 0.00 86 1012.6
20260906030605 65 67 0.0 0.0 0.00 0.00 0.00 84 1012.7
20260906025840 66 67 0.0 0.0 0.00 0.00 0.00 84 1012.7
20260906025341 66 67 0.0 0.0 0.00 0.00 0.00 84 1012.7
20260906024840 66 67 0.0 1.0 0.00 0.00 0.00 84 1012.6
20260906024340 66 67 0.0 1.0 0.00 0.00 0.00 84 1012.7
20260906024100 66 67 0.0 1.0 0.00 0.00 0.00 84 1012.7
20260906023336 67 67 0.0 1.0 0.00 0.00 0.00 84 1012.7
20260906022835 67 67 0.0 1.0 0.00 0.00 0.00 84 1012.7
20260906022336 67 67 0.0 1.0 0.00 0.00 0.00 84 1012.7
20260906021831 67 67 0.0 1.0 0.00 0.00 0.00 84 1012.7
20260906021544 67 67 0.0 1.0 0.00 0.00 0.00 84 1012.7
20260906020814 67 67 0.0 1.0 0.00 0.00 0.00 85 1012.7
20260906020308 67 67 0.0 1.0 0.00 0.00 0.00 84 1012.6
20260906015804 67 67 0.0 1.0 0.00 0.00 0.00 84 1012.6
20260906015252 67 67 0.0 1.0 0.00 0.00 0.00 83 1012.6
20260906015019 67 67 0.0 1.0 0.00 0.00 0.00 83 1012.5
20260906014458 67 67 0.0 1.0 0.00 0.00 0.00 83 1012.5
20260906013730 67 67 0.0 0.0 0.00 0.00 0.00 83 1012.4
20260906013224 67 67 0.0 0.0 0.00 0.00 0.00 83 1012.4
20260906012718 67 67 0.0 0.0 0.00 0.00 0.00 83 1012.4
20260906012208 67 67 0.0 0.0 0.00 0.00 0.00 84 1012.3
20260906011702 67 67 0.0 0.0 0.00 0.00 0.00 84 1012.4
20260906011155 68 67 0.0 0.0 0.00 0.00 0.00 84 1012.3
20260906010646 68 67 0.0 0.0 0.00 0.00 0.00 85 1012.2
20260906010357 68 67 0.0 0.0 0.00 0.00 0.00 85 1012.2
20260906005634 68 67 0.0 0.0 0.00 0.00 0.00 85 1012.1
20260906005124 68 67 0.0 0.0 0.00 0.00 0.00 84 1012.1
20260906004618 68 67 0.0 0.0 0.00 0.00 0.00 84 1012.0
20260906004113 68 67 0.0 0.0 0.00 0.00 0.00 84 1012.1
20260906003602 68 67 0.0 0.0 0.00 0.00 0.00 84 1012.0
20260906003056 68 67 0.0 0.0 0.00 0.00 0.00 84 1011.9
20260906002550 68 67 0.0 0.0 0.00 0.00 0.00 84 1011.7
20260906002040 68 67 0.0 0.0 0.00 0.00 0.00 84 1011.7
20260906001534 69 67 0.0 0.0 0.00 0.00 0.00 83 1011.6
20260906001028 69 67 0.0 0.0 0.00 0.00 0.00 83 1011.6
20260906000518 69 67 0.0 0.0 0.00 0.00 0.00 83 1011.5
20260906000237 69 67 0.0 0.0 0.00 0.00 0.00 82 1011.5
20260905235506 70 67 0.0 0.0 0.00 0.00 0.00 82 1011.4
20260905234956 70 67 0.0 0.0 0.00 0.00 0.00 81 1011.3
20260905234451 70 67 0.0 0.0 0.00 0.00 0.00 80 1011.3
20260905233944 71 67 0.0 0.0 0.00 0.00 0.00 80 1011.2
20260905233434 71 67 0.0 0.0 0.00 0.00 0.00 80 1011.2
20260905232928 71 67 0.0 0.0 0.00 0.00 0.00 79 1011.2
20260905232422 72 67 0.0 0.0 0.00 0.00 0.00 79 1011.2
20260905231912 72 67 0.0 0.0 0.00 0.00 0.00 78 1011.2
20260905231406 73 67 0.0 0.0 0.00 0.00 0.00 77 1011.3
20260905230859 73 67 0.0 0.0 0.00 0.00 0.00 77 1011.3
20260905230350 73 67 0.0 0.0 0.00 0.00 0.00 76 1011.3
20260905225844 74 67 0.0 0.0 0.00 0.00 0.00 76 1011.1
20260905225339 74 67 0.0 0.0 0.00 0.00 0.00 75 1011.1
20260905224828 74 67 0.0 0.0 0.00 0.00 0.00 74 1011.2
20260905224540 75 67 0.0 0.0 0.00 0.00 0.00 74 1011.2
20260905223815 75 67 0.0 0.0 0.00 0.00 0.00 73 1011.0
20260905223306 75 67 0.0 0.0 0.00 0.00 0.00 71 1011.0
20260905222800 75 67 0.0 0.0 0.00 0.00 0.00 70 1010.9
20260905222254 75 67 0.0 0.0 0.00 0.00 0.00 70 1010.9
20260905221744 76 67 0.0 0.0 0.00 0.00 0.00 70 1010.9
20260905221243 76 67 0.0 0.0 0.00 0.00 0.00 69 1010.8
20260905220744 76 67 0.0 0.0 0.00 0.00 0.00 68 1010.8
20260905220243 76 67 0.0 3.0 0.00 0.00 0.00 68 1010.7
20260905215741 76 67 0.0 3.0 0.00 0.00 0.00 68 1010.7
20260905215240 76 67 0.0 3.0 0.00 0.00 0.00 65 1010.7
20260905214740 76 67 0.0 3.0 0.00 0.00 0.00 66 1010.7
20260905214504 76 67 1.0 3.0 0.00 0.00 0.00 65 1010.6
20260905213741 76 67 0.0 3.0 0.00 0.00 0.00 67 1010.7
20260905213239 76 67 0.0 1.0 0.00 0.00 0.00 69 1010.6
20260905212738 76 67 1.0 3.0 0.00 0.00 0.00 69 1010.7
20260905212238 76 67 1.0 3.0 0.00 0.00 0.00 68 1010.7
20260905211735 76 68 1.0 3.0 0.00 0.00 0.00 68 1010.6
20260905211450 76 68 1.0 3.0 0.00 0.00 0.00 67 1010.5
20260905210734 76 67 0.0 3.0 0.00 0.00 0.00 67 1010.5
20260905210234 76 67 0.0 3.0 0.00 0.00 0.00 68 1010.5
20260905205735 76 63 1.0 3.0 0.00 0.00 0.00 69 1010.5
20260905205235 76 63 1.0 3.0 0.00 0.00 0.00 67 1010.6
20260905204734 77 69 0.0 2.0 0.00 0.00 0.00 68 1010.6
20260905204507 77 39 0.0 2.0 0.00 0.00 0.00 67 1010.6
20260905203735 77 39 0.0 0.0 0.00 0.00 0.00 67 1010.5
20260905203240 78 39 0.0 0.0 0.00 0.00 0.00 66 1010.2
20260905203233 77 39 0.0 0.0 0.00 0.00 0.00 65 1010.4
20260905202231 78 39 0.0 0.0 0.00 0.00 0.00 64 1010.3
20260905201731 78 39 0.0 0.0 0.00 0.00 0.00 65 1010.4
20260905201231 78 39 0.0 2.0 0.00 0.00 0.00 66 1010.5
20260905200950 77 39 0.0 2.0 0.00 0.00 0.00 65 1010.4
20260905200459 77 39 0.0 2.0 0.00 0.00 0.00 64 1010.4
20260905195948 77 38 0.0 2.0 0.00 0.00 0.00 65 1010.4
20260905195225 77 38 0.0 2.0 0.00 0.00 0.00 64 1010.5
20260905194726 77 38 0.0 2.0 0.00 0.00 0.00 66 1010.4
20260905194444 77 38 0.0 2.0 0.00 0.00 0.00 64 1010.3
20260905193715 77 38 1.0 4.0 0.00 0.00 0.00 65 1010.5
20260905193439 78 38 1.0 4.0 0.00 0.00 0.00 64 1010.5
20260905192717 78 34 1.0 4.0 0.00 0.00 0.00 63 1010.4
20260905192441 78 96 1.0 4.0 0.00 0.00 0.00 63 1010.4
20260905191716 78 89 1.0 4.0 0.00 0.00 0.00 62 1010.3
20260905191219 78 78 1.0 4.0 0.00 0.00 0.00 64 1010.4
20260905191209 78 78 1.0 5.0 0.00 0.00 0.00 61 1010.5
20260905190214 78 77 1.0 5.0 0.00 0.00 0.00 61 1010.5
20260905185713 79 153 2.0 5.0 0.00 0.00 0.00 61 1010.6
20260905185212 78 78 1.0 5.0 0.00 0.00 0.00 62 1010.7
20260905184712 78 138 1.0 2.0 0.00 0.00 0.00 63 1010.6
20260905184213 78 138 1.0 2.0 0.00 0.00 0.00 60 1010.6
20260905183711 78 138 1.0 2.0 0.00 0.00 0.00 61 1010.7
20260905183432 78 180 1.0 4.0 0.00 0.00 0.00 61 1010.7
20260905182711 78 180 1.0 4.0 0.00 0.00 0.00 60 1010.8
20260905182213 78 178 1.0 4.0 0.00 0.00 0.00 63 1010.8
20260905181712 78 80 2.0 4.0 0.00 0.00 0.00 64 1010.7
20260905181209 78 79 1.0 4.0 0.00 0.00 0.00 62 1010.8
20260905180717 77 111 1.0 4.0 0.00 0.00 0.00 66 1010.9
20260905180711 77 188 1.0 4.0 0.00 0.00 0.00 63 1010.8
20260905175707 76 86 1.0 4.0 0.00 0.00 0.00 64 1011.0
20260905175207 77 86 1.0 5.0 0.00 0.00 0.00 62 1011.0
20260905174707 78 86 1.0 5.0 0.00 0.00 0.00 61 1011.0
20260905174209 78 174 2.0 5.0 0.00 0.00 0.00 61 1010.9
20260905173706 78 53 2.0 5.0 0.00 0.00 0.00 60 1011.0
20260905173208 78 57 1.0 4.0 0.00 0.00 0.00 63 1011.0
20260905172708 77 98 1.0 4.0 0.00 0.00 0.00 66 1011.0
20260905172208 77 164 1.0 4.0 0.00 0.00 0.00 65 1011.1
20260905171929 77 164 2.0 4.0 0.00 0.00 0.00 63 1011.2
20260905171425 77 202 2.0 4.0 0.00 0.00 0.00 62 1011.3
20260905170708 78 192 1.0 4.0 0.00 0.00 0.00 62 1011.3
20260905170207 77 44 2.0 4.0 0.00 0.00 0.00 64 1011.4
20260905165922 77 56 2.0 4.0 0.00 0.00 0.00 63 1011.4
20260905165207 77 84 1.0 4.0 0.00 0.00 0.00 64 1011.3
20260905164708 77 129 1.0 3.0 0.00 0.00 0.00 64 1011.3
20260905164206 77 123 1.0 4.0 0.00 0.00 0.00 66 1011.5
20260905163705 77 115 1.0 4.0 0.00 0.00 0.00 65 1011.4
20260905163207 77 163 1.0 4.0 0.00 0.00 0.00 65 1011.5
20260905162707 77 178 1.0 4.0 0.00 0.00 0.00 63 1011.5
20260905162205 76 158 2.0 7.0 0.00 0.00 0.00 67 1011.5
20260905161707 76 69 2.0 7.0 0.00 0.00 0.00 64 1011.5
20260905161206 75 78 1.0 4.0 0.00 0.00 0.00 68 1011.5
20260905160707 75 82 1.0 4.0 0.00 0.00 0.00 69 1011.4
20260905160205 75 86 1.0 3.0 0.00 0.00 0.00 70 1011.5
20260905155705 74 86 1.0 3.0 0.00 0.00 0.00 70 1011.4
20260905155426 74 86 1.0 4.0 0.00 0.00 0.00 69 1011.4
20260905154707 75 70 1.0 4.0 0.00 0.00 0.00 68 1011.4
20260905154205 75 72 1.0 4.0 0.00 0.00 0.00 67 1011.4
20260905153705 75 90 1.0 4.0 0.00 0.00 0.00 67 1011.4
20260905153204 75 44 1.0 4.0 0.00 0.00 0.00 68 1011.3
20260905152704 75 57 1.0 4.0 0.00 0.00 0.00 66 1011.4
20260905152203 75 86 1.0 4.0 0.00 0.00 0.00 70 1011.4
20260905151702 76 55 1.0 4.0 0.00 0.00 0.00 68 1011.5
20260905151203 76 29 1.0 5.0 0.00 0.00 0.00 67 1011.5
20260905150703 76 210 2.0 5.0 0.00 0.00 0.00 65 1011.3
20260905150202 76 81 1.0 5.0 0.00 0.00 0.00 66 1011.4
20260905145701 76 111 2.0 5.0 0.00 0.00 0.00 68 1011.5
20260905145158 75 86 2.0 9.0 0.00 0.00 0.00 67 1011.4
20260905144655 75 58 2.0 9.0 0.00 0.00 0.00 66 1011.4
20260905144638 75 98 2.0 9.0 0.00 0.00 0.00 65 1011.5
20260905143655 76 24 1.0 9.0 0.00 0.00 0.00 65 1011.5
20260905143153 76 167 1.0 8.0 0.00 0.00 0.00 67 1011.4
20260905142654 75 71 2.0 8.0 0.00 0.00 0.00 69 1011.3
20260905142154 76 34 2.0 8.0 0.00 0.00 0.00 67 1011.4
20260905141655 76 69 1.0 4.0 0.00 0.00 0.00 68 1011.2
20260905141149 76 65 2.0 5.0 0.00 0.00 0.00 67 1011.3
20260905140639 76 30 2.0 5.0 0.00 0.00 0.00 69 1011.3
20260905140134 75 97 2.0 5.0 0.00 0.00 0.00 70 1011.1
20260905135627 75 22 2.0 6.0 0.00 0.00 0.00 68 1011.0
20260905135131 75 168 2.0 6.0 0.00 0.00 0.00 70 1011.1
20260905134611 74 80 2.0 7.0 0.00 0.00 0.00 71 1011.1
20260905134118 74 133 2.0 7.0 0.00 0.00 0.00 71 1011.1
20260905133555 74 69 3.0 7.0 0.00 0.00 0.00 72 1011.1
20260905133531 73 84 3.0 7.0 0.00 0.00 0.00 71 1011.1
20260905132543 73 70 2.0 7.0 0.00 0.00 0.00 74 1011.1
20260905132033 73 58 2.0 7.0 0.00 0.00 0.00 74 1011.3
20260905131752 73 75 2.0 5.0 0.00 0.00 0.00 73 1011.3
20260905131034 73 83 1.0 4.0 0.00 0.00 0.00 73 1011.3
20260905130729 73 64 2.0 4.0 0.00 0.00 0.00 73 1011.3
20260905130005 73 65 2.0 4.0 0.00 0.00 0.00 74 1011.3
20260905125459 73 55 1.0 4.0 0.00 0.00 0.00 76 1011.5
20260905124948 72 227 0.0 3.0 0.00 0.00 0.00 77 1011.5
20260905124926 71 172 0.0 3.0 0.00 0.00 0.00 78 1011.5
20260905124202 71 169 0.0 4.0 0.00 0.00 0.00 78 1011.6
20260905123440 70 169 1.0 4.0 0.00 0.00 0.00 80 1011.6
20260905122942 69 74 1.0 4.0 0.00 0.00 0.00 79 1011.6
20260905122445 69 74 0.0 3.0 0.00 0.00 0.00 81 1011.6
20260905121944 68 74 0.0 3.0 0.00 0.00 0.00 81 1011.6
20260905121442 68 74 0.0 3.0 0.00 0.00 0.00 82 1011.7
20260905120940 68 74 0.0 3.0 0.00 0.00 0.00 81 1011.7
20260905120438 67 97 0.0 6.0 0.00 0.00 0.00 82 1011.6
20260905115940 67 94 0.0 6.0 0.00 0.00 0.00 82 1011.6
20260905115440 67 94 1.0 6.0 0.00 0.00 0.00 82 1011.7
20260905114938 67 94 1.0 6.0 0.00 0.00 0.00 82 1011.5
20260905114439 67 84 1.0 3.0 0.00 0.00 0.00 83 1011.4
20260905114202 66 90 0.0 3.0 0.00 0.00 0.00 83 1011.5
20260905113440 66 78 0.0 2.0 0.00 0.00 0.00 84 1011.4
20260905112933 66 76 0.0 4.0 0.00 0.00 0.00 84 1011.3
20260905112428 65 76 0.0 3.0 0.00 0.00 0.00 84 1011.4
20260905111918 65 65 0.0 2.0 0.00 0.00 0.00 84 1011.2
20260905111412 65 65 0.0 1.0 0.00 0.00 0.00 84 1011.2
20260905110906 65 65 0.0 1.0 0.00 0.00 0.00 85 1011.1
20260905110619 65 65 0.0 0.0 0.00 0.00 0.00 84 1011.0
20260905105850 66 65 0.0 0.0 0.00 0.00 0.00 84 1010.9
20260905105345 66 65 0.0 0.0 0.00 0.00 0.00 83 1010.7
20260905104328 66 65 0.0 0.0 0.00 0.00 0.00 82 1010.6
20260905103822 67 65 0.0 0.0 0.00 0.00 0.00 81 1010.6
20260905103312 67 65 0.0 0.0 0.00 0.00 0.00 81 1010.7
20260905102806 67 65 0.0 0.0 0.00 0.00 0.00 81 1010.7
20260905102259 68 65 0.0 0.0 0.00 0.00 0.00 80 1010.8
20260905101750 68 65 0.0 0.0 0.00 0.00 0.00 79 1010.8
20260905101731 68 65 0.0 0.0 0.00 0.00 0.00 78 1010.6
20260905100738 68 64 0.0 0.0 0.00 0.00 0.00 78 1010.6
20260905100443 68 64 0.0 5.0 0.00 0.00 0.00 78 1010.6
20260905095725 68 64 0.0 5.0 0.00 0.00 0.00 78 1010.5
20260905095216 68 64 0.0 5.0 0.00 0.00 0.00 78 1010.4
20260905094706 68 40 0.0 5.0 0.00 0.00 0.00 78 1010.5
20260905094200 68 71 0.0 0.0 0.00 0.00 0.00 77 1010.4
20260905093700 68 71 0.0 0.0 0.00 0.00 0.00 77 1010.3
20260905093421 68 71 0.0 2.0 0.00 0.00 0.00 77 1010.3
20260905092700 68 71 0.0 2.0 0.00 0.00 0.00 77 1010.3
20260905092157 68 71 0.0 4.0 0.00 0.00 0.00 76 1010.3
20260905091658 69 71 1.0 4.0 0.00 0.00 0.00 76 1010.3
20260905091156 69 73 0.0 3.0 0.00 0.00 0.00 76 1010.3
20260905090655 69 71 0.0 1.0 0.00 0.00 0.00 76 1010.2
20260905090156 69 71 0.0 6.0 0.00 0.00 0.00 76 1010.3
20260905085920 69 71 0.0 6.0 0.00 0.00 0.00 76 1010.2
20260905085154 69 61 0.0 6.0 0.00 0.00 0.00 75 1010.3
20260905084703 69 61 0.0 6.0 0.00 0.00 0.00 75 1010.2
20260905084152 69 51 0.0 0.0 0.00 0.00 0.00 75 1010.3
20260905083652 69 51 0.0 0.0 0.00 0.00 0.00 75 1010.3
20260905083154 69 51 0.0 0.0 0.00 0.00 0.00 75 1010.4
20260905082648 69 51 0.0 0.0 0.00 0.00 0.00 74 1010.3
20260905082142 70 51 0.0 0.0 0.00 0.00 0.00 74 1010.3
20260905081641 70 51 0.0 0.0 0.00 0.00 0.00 74 1010.3
20260905081141 70 51 0.0 0.0 0.00 0.00 0.00 74 1010.3
20260905080645 70 51 0.0 0.0 0.00 0.00 0.00 74 1010.4
20260905080142 70 51 0.0 0.0 0.00 0.00 0.00 74 1010.4